Wind_Speed
38 40 48 47 42 47 50 58 61 62 59 48 43 38 32 29 26 24 23 28 35 45 53 67 82 98 87 84 81 83 73 69 65 66 55 40 45 37 43 43 41 48 57 64
44 50 46 35 42 44 49 51 62 53 55 42 39 39 36 31 27 21 19 22 31 42 53 68 81 100 94 83 78 70 74 77 67 65 58 48 43 42 38 35 43 54 53 54
52 37 27 33 38 43 50 52 55 49 47 45 42 42 38 37 30 22 15 17 23 33 46 65 75 92 105 91 85 70 74 70 64 63 65 55 50 48 45 46 41 51 49 47
41 30 27 34 39 47 47 51 50 50 48 46 45 46 41 42 38 26 17 10 18 27 38 53 72 78 100 99 92 87 77 74 71 68 68 60 52 48 48 51 55 61 60 60
34 30 31 33 38 44 45 50 59 61 64 55 52 49 48 44 42 35 24 10 13 26 35 46 61 75 80 95 110 92 83 77 78 71 69 66 58 57 57 56 51 58 63 60
39 43 47 32 36 40 48 52 57 66 73 64 55 50 48 47 46 41 29 18 7 19 28 40 52 70 74 84 90 97 86 86 83 77 74 68 67 67 63 63 67 65 59 60
44 41 33 28 34 42 46 51 57 63 73 75 65 54 47 47 46 44 37 23 11 13 22 33 47 59 72 77 82 96 94 88 88 77 78 78 75 69 70 72 72 70 69 65
45 44 27 26 29 38 43 54 58 63 72 77 74 65 56 51 48 45 39 31 17 6 18 27 37 49 65 74 82 89 93 89 90 88 84 81 79 77 75 76 73 69 60 56
41 39 28 25 25 35 42 48 55 63 70 74 77 72 63 55 50 48 43 34 25 13 7 23 32 42 52 71 79 93 95 92 89 88 91 85 84 82 78 76 72 69 65 66
36 40 25 26 26 38 42 48 51 61 69 75 78 79 70 60 54 50 48 42 32 20 9 13 28 39 45 62 74 87 98 100 93 90 90 94 88 88 83 79 76 74 73 73
31 28 26 22 28 38 43 47 54 57 64 70 76 84 80 67 58 52 49 44 39 27 17 7 18 32 43 52 67 83 90 100 101 97 93 90 93 93 93 89 87 83 85 85
31 33 31 25 29 36 43 47 49 55 57 67 73 75 85 75 64 57 51 46 40 35 19 15 10 21 35 46 57 69 89 92 101 101 99 96 95 97 98 96 98 93 91 89
27 28 25 32 32 34 45 45 44 52 58 62 69 73 80 82 73 62 53 49 44 38 26 15 13 14 22 36 45 55 72 86 96 102 103 101 101 100 103 101 100 103 106 100
28 34 31 32 32 38 38 44 43 50 53 59 63 72 75 84 80 72 60 50 46 43 32 20 13 12 15 21 33 44 53 64 81 94 100 100 104 104 102 102 103 103 104 104
30 34 37 42 35 33 39 41 43 46 50 54 59 64 71 75 83 80 70 56 48 43 37 31 22 15 12 14 20 27 39 49 56 65 76 83 96 106 105 108 106 103 102 103
37 35 36 49 41 36 36 38 38 44 48 54 59 63 66 69 78 81 78 67 53 46 40 35 33 29 20 13 13 17 24 31 41 48 55 61 65 71 76 83 96 104 106 110
44 42 43 42 44 40 39 41 38 45 49 52 54 61 65 66 73 80 78 76 64 51 42 37 35 32 31 26 19 14 18 23 25 28 33 39 47 53 58 61 63 67 71 76
48 46 47 47 45 46 41 42 43 44 46 50 54 59 62 65 66 75 77 79 73 60 51 41 36 35 34 30 27 19 13 15 20 24 25 26 29 33 37 42 48 52 56 61
46 46 45 47 47 49 48 45 45 44 47 48 52 56 58 64 66 70 75 78 75 67 54 48 41 35 35 35 31 28 17 8 9 14 20 27 31 32 32 34 37 38 41 45
46 47 51 46 48 53 54 44 49 48 41 45 52 55 56 59 64 69 70 75 75 69 64 51 44 41 33 33 36 36 29 21 13 8 8 12 16 21 26 27 28 29 31 32
52 49 51 51 51 50 54 46 46 44 47 47 51 57 54 59 62 65 72 72 72 65 62 57 48 40 38 32 29 31 32 29 24 20 13 8 5 5 7 10 13 14 16 19
60 55 56 55 57 52 53 53 44 45 49 51 52 51 54 58 61 65 70 68 67 65 56 55 47 42 37 35 31 28 27 25 22 19 17 15 13 10 7 6 5 5 4 4
61 58 60 63 62 57 52 54 51 50 46 49 50 55 53 56 58 64 69 68 65 61 57 50 49 41 36 35 32 30 27 25 25 24 21 18 15 12 10 9 9 9 9 8
60 61 64 65 62 58 57 58 58 54 50 52 56 54 55 56 61 63 68 65 62 62 58 53 48 43 34 34 32 30 30 27 26 26 24 23 22 20 17 15 14 14 14 13
67 61 67 66 67 62 63 60 62 60 56 54 57 54 53 54 58 63 61 63 65 60 58 52 50 49 40 31 31 30 29 27 25 23 23 24 25 24 23 22 21 20 19 18
67 65 68 69 67 66 69 65 67 59 54 53 54 56 56 58 60 59 62 66 67 61 55 49 50 48 45 37 31 28 27 28 27 26 23 21 21 22 22 22 22 21 20 19
Wind_Direction
308 317 313 325 355 342 342 339 342 342 342 343 343 340 338 335 319 297 271 242 222 216 211 204 202 206 206 207 206 208 199 203 204 212 216 216 225 230 233 243 246 237 241 241
304 306 309 348 343 357 357 358 352 351 345 349 352 349 345 351 339 315 285 250 229 215 212 207 206 205 201 202 200 202 199 206 206 208 209 208 221 234 241 249 249 241 245 241
303 307 335 358 359 2 16 12 0 3 0 354 358 2 355 358 355 338 310 260 235 218 211 208 206 209 210 205 203 202 198 200 204 208 210 210 215 231 231 233 234 248 247 240
305 304 348 348 4 15 13 11 12 15 11 9 7 6 7 2 359 355 344 277 234 219 210 210 209 207 207 207 210 209 210 206 205 212 212 215 212 214 216 223 233 241 249 238
297 311 325 2 9 20 18 17 26 20 23 18 15 11 10 6 4 1 357 332 239 219 212 210 209 209 211 211 213 213 210 209 208 211 212 213 214 214 217 218 226 229 244 240
300 308 310 335 4 18 25 24 30 32 26 25 20 15 14 12 7 5 0 356 264 222 216 212 211 212 210 211 211 210 209 213 210 212 211 210 213 213 218 222 228 234 242 248
302 304 310 343 7 19 27 29 30 35 32 27 27 19 15 16 13 6 4 2 347 232 223 218 217 214 210 211 212 210 212 213 210 211 212 213 215 220 221 226 228 235 243 249
305 291 314 350 1 17 24 29 27 31 35 27 27 25 18 17 15 13 7 2 359 306 226 224 218 218 215 211 211 208 210 214 216 215 213 214 218 219 227 231 231 235 241 251
301 291 304 340 356 18 23 26 30 30 31 32 28 27 23 17 16 13 12 7 360 353 243 223 223 219 219 215 212 212 211 217 219 219 216 216 219 224 225 228 232 235 243 246
301 294 299 339 356 2 18 25 27 28 29 31 29 26 26 22 18 15 11 8 4 353 334 234 223 221 219 219 218 216 215 218 220 222 223 223 224 224 229 227 231 234 239 247
305 296 301 328 349 348 359 20 20 25 25 26 30 26 26 24 19 17 12 7 5 358 339 294 233 225 223 221 219 220 222 221 224 225 228 227 227 229 230 231 233 234 238 242
316 313 310 319 337 338 345 357 15 19 23 19 24 24 25 24 23 18 14 9 5 2 348 321 275 234 228 227 226 224 223 226 227 227 229 230 229 231 232 234 235 238 241 242
324 309 306 315 326 335 333 345 5 11 19 22 19 21 23 24 23 20 17 11 6 4 359 344 313 278 243 232 230 231 229 227 227 229 232 235 235 234 236 239 240 239 241 247
319 323 319 314 309 323 331 339 355 9 20 22 17 18 21 20 23 22 18 15 10 8 8 1 344 317 284 256 240 235 234 234 233 233 234 236 238 241 242 244 245 247 248 251
302 319 325 329 324 320 328 340 353 5 10 19 14 13 15 16 19 20 20 18 14 12 17 16 7 351 324 291 266 251 242 239 239 239 239 241 243 243 245 246 248 251 255 257
301 309 318 326 325 328 319 336 353 354 5 9 14 12 13 13 14 16 17 18 18 13 12 13 12 9 354 330 297 275 260 252 245 241 243 245 246 246 248 249 250 252 255 256
293 300 310 314 321 324 325 328 337 343 352 2 9 10 9 10 9 11 13 16 14 15 14 14 17 14 6 0 340 303 277 263 256 255 251 249 248 247 249 251 252 253 254 257
291 302 306 310 310 312 323 324 330 335 348 354 1 8 8 9 6 10 12 11 12 10 11 12 16 20 15 10 3 345 311 271 263 257 255 252 252 253 253 254 255 258 260 262
290 303 305 308 304 312 317 320 325 330 338 346 355 1 3 4 5 6 5 6 8 6 5 6 9 16 19 16 16 16 3 335 277 264 263 260 258 256 255 256 258 259 260 263
285 296 304 299 299 304 311 320 321 320 337 347 346 351 355 359 0 2 2 0 2 2 359 1 2 5 16 24 17 16 22 29 21 347 306 276 267 260 259 259 256 258 262 269
277 286 294 302 301 301 307 313 316 320 320 330 340 341 352 354 357 2 358 356 357 356 353 352 355 357 2 11 27 27 19 21 26 32 31 16 345 309 283 276 273 274 271 271
277 279 286 298 296 297 298 305 312 316 319 324 330 336 344 348 351 355 353 356 355 354 347 346 346 349 353 357 3 15 27 29 27 27 31 42 51 57 55 50 38 26 11 21
274 278 283 288 292 294 294 295 299 307 317 322 322 329 336 341 346 350 349 352 352 350 348 339 336 340 344 347 351 354 3 13 22 25 22 21 25 35 34 33 32 26 23 21
273 279 283 280 287 292 291 292 294 300 305 311 314 321 327 335 338 341 342 347 346 352 346 339 332 330 335 338 339 344 346 353 359 4 10 14 14 11 9 8 8 7 7 6
271 278 278 279 280 288 291 288 292 293 294 304 310 315 322 332 335 336 342 343 346 347 344 341 332 327 319 320 329 329 333 337 340 345 349 352 354 356 358 357 355 352 353 354
271 272 277 277 281 285 288 284 286 286 293 302 307 309 316 326 326 329 333 335 338 337 340 342 336 320 314 308 307 317 317 319 323 325 327 329 331 333 335 338 341 342 342 342
Height
10727 10719 10708 10698 10685 10673 10659 10640 10625 10608 10590 10575 10558 10549 10538 10529 10521 10516 10515 10516 10522 10527 10535 10539 10545 10555 10564 10577 10580 10589 10598 10601 10608 10620 10631 10638 10643 10648 10652 10655 10659 10664 10670 10677
10721 10713 10705 10693 10681 10666 10651 10633 10617 10600 10584 10570 10556 10543 10532 10522 10514 10509 10505 10506 10508 10516 10524 10531 10538 10546 10555 10564 10571 10580 10586 10593 10600 10613 10620 10626 10635 10640 10642 10648 10648 10653 10660 10663
10716 10710 10699 10689 10677 10662 10647 10631 10615 10598 10581 10566 10552 10541 10529 10519 10511 10504 10500 10498 10499 10503 10512 10522 10530 10537 10546 10555 10564 10569 10576 10588 10597 10604 10611 10616 10625 10631 10635 10640 10643 10638 10648 10652
10710 10705 10695 10685 10674 10659 10645 10631 10614 10598 10581 10564 10550 10538 10528 10516 10507 10500 10495 10493 10492 10495 10501 10509 10520 10530 10539 10545 10553 10565 10572 10579 10587 10597 10603 10611 10616 10621 10625 10629 10634 10635 10635 10642
10707 10702 10692 10680 10670 10656 10643 10628 10609 10596 10579 10564 10551 10539 10525 10517 10508 10498 10492 10490 10489 10491 10495 10501 10511 10520 10528 10536 10545 10559 10566 10571 10578 10588 10594 10600 10608 10614 10616 10621 10625 10626 10626 10632
10701 10697 10689 10677 10669 10655 10639 10628 10610 10595 10585 10568 10555 10542 10531 10519 10508 10500 10493 10488 10487 10488 10492 10496 10502 10510 10518 10528 10538 10552 10559 10562 10570 10576 10584 10591 10598 10603 10607 10611 10612 10615 10617 10621
10696 10690 10682 10673 10666 10654 10639 10624 10611 10597 10584 10572 10555 10544 10534 10522 10512 10502 10494 10489 10486 10486 10488 10492 10496 10502 10509 10520 10529 10540 10549 10553 10560 10567 10575 10579 10586 10592 10596 10598 10602 10607 10610 10613
10690 10685 10678 10669 10663 10651 10637 10623 10609 10595 10581 10571 10558 10546 10535 10523 10515 10507 10498 10490 10487 10486 10486 10487 10490 10498 10506 10512 10522 10532 10540 10546 10552 10556 10561 10568 10574 10580 10586 10589 10593 10598 10601 10605
10683 10679 10674 10665 10659 10648 10636 10624 10611 10599 10585 10572 10563 10549 10538 10528 10517 10509 10501 10494 10487 10484 10484 10485 10486 10491 10499 10507 10514 10523 10529 10534 10540 10545 10551 10557 10564 10568 10573 10580 10585 10589 10592 10597
10677 10673 10669 10662 10654 10646 10634 10621 10613 10600 10587 10573 10563 10554 10541 10530 10520 10511 10502 10496 10490 10484 10481 10483 10483 10486 10491 10500 10508 10514 10519 10525 10530 10535 10540 10548 10552 10558 10564 10569 10573 10578 10582 10586
10672 10668 10664 10659 10651 10644 10633 10621 10611 10598 10588 10577 10564 10555 10543 10533 10522 10513 10505 10498 10491 10485 10481 10478 10480 10481 10483 10488 10496 10505 10510 10514 10520 10527 10532 10537 10541 10547 10552 10557 10561 10565 10567 10570
10667 10663 10660 10656 10648 10642 10631 10623 10609 10600 10587 10577 10565 10557 10545 10535 10525 10515 10506 10500 10493 10486 10480 10476 10475 10476 10478 10481 10485 10490 10498 10503 10509 10514 10520 10525 10530 10534 10539 10543 10547 10550 10552 10555
10663 10658 10654 10650 10645 10639 10629 10621 10608 10597 10586 10577 10567 10557 10547 10538 10528 10519 10509 10501 10493 10487 10480 10476 10473 10471 10472 10475 10476 10479 10484 10490 10496 10502 10507 10512 10517 10522 10525 10529 10532 10534 10538 10540
10659 10654 10648 10643 10639 10634 10627 10619 10610 10598 10587 10577 10569 10559 10549 10542 10531 10522 10513 10504 10496 10487 10481 10477 10473 10470 10468 10468 10470 10472 10473 10477 10483 10489 10494 10498 10503 10507 10511 10516 10519 10521 10524 10526
10653 10650 10643 10637 10634 10630 10624 10618 10609 10599 10588 10577 10569 10561 10550 10542 10534 10525 10517 10508 10499 10491 10483 10477 10474 10471 10467 10465 10463 10462 10465 10467 10469 10472 10478 10483 10487 10492 10497 10499 10501 10504 10506 10508
10646 10643 10639 10633 10629 10626 10621 10615 10608 10598 10586 10577 10568 10560 10553 10544 10536 10527 10520 10511 10504 10496 10488 10480 10474 10470 10466 10462 10459 10457 10456 10456 10459 10461 10464 10467 10469 10473 10477 10481 10485 10488 10489 10490
10639 10635 10632 10629 10625 10623 10617 10612 10605 10596 10587 10576 10567 10560 10552 10546 10536 10529 10520 10513 10505 10500 10494 10486 10479 10472 10466 10460 10455 10452 10449 10447 10447 10449 10452 10455 10457 10462 10464 10466 10468 10469 10470 10471
10629 10627 10623 10620 10617 10617 10614 10607 10600 10593 10585 10576 10567 10559 10552 10545 10538 10530 10521 10513 10506 10499 10494 10490 10483 10475 10469 10462 10454 10447 10444 10442 10442 10443 10443 10443 10445 10448 10451 10453 10455 10456 10455 10456
10620 10620 10615 10612 10610 10610 10608 10602 10596 10589 10583 10575 10567 10558 10551 10544 10538 10531 10522 10514 10507 10501 10495 10489 10485 10479 10470 10464 10458 10450 10443 10440 10439 10440 10439 10439 10441 10442 10444 10446 10446 10448 10447 10445
10611 10611 10607 10604 10602 10601 10598 10597 10590 10585 10580 10573 10565 10557 10550 10544 10537 10531 10523 10515 10507 10499 10494 10489 10484 10479 10475 10467 10460 10454 10449 10443 10440 10438 10436 10435 10436 10436 10437 10438 10440 10441 10440 10438
10601 10602 10597 10597 10594 10592 10591 10589 10584 10579 10575 10569 10563 10556 10549 10542 10537 10530 10524 10517 10509 10500 10493 10487 10483 10480 10475 10471 10465 10460 10453 10448 10443 10440 10437 10435 10434 10434 10434 10434 10434 10433 10433 10431
10589 10590 10587 10587 10585 10585 10584 10581 10579 10574 10569 10563 10559 10552 10545 10539 10533 10527 10523 10516 10510 10503 10493 10488 10482 10478 10474 10471 10467 10462 10458 10455 10451 10446 10442 10439 10437 10435 10434 10432 10431 10429 10428 10425
10576 10579 10577 10574 10573 10576 10575 10572 10572 10568 10563 10558 10553 10549 10541 10535 10529 10524 10519 10514 10508 10501 10495 10488 10483 10478 10472 10469 10466 10462 10458 10455 10452 10449 10445 10443 10440 10438 10436 10433 10431 10429 10426 10424
10564 10565 10564 10558 10559 10565 10561 10562 10563 10562 10557 10550 10545 10542 10536 10531 10524 10520 10514 10510 10504 10498 10492 10488 10483 10478 10473 10467 10463 10461 10457 10453 10450 10448 10445 10442 10440 10438 10435 10433 10431 10428 10426 10424
10553 10551 10544 10545 10542 10554 10549 10549 10550 10553 10548 10542 10538 10533 10529 10524 10519 10514 10509 10504 10500 10495 10488 10484 10480 10476 10471 10467 10463 10459 10455 10452 10449 10447 10444 10441 10438 10436 10433 10431 10428 10426 10423 10421
10537 10534 10534 10526 10527 10533 10536 10535 10536 10539 10537 10533 10528 10524 10520 10513 10510 10508 10502 10497 10492 10488 10483 10477 10474 10470 10467 10462 10459 10457 10454 10450 10447 10444 10442 10440 10437 10435 10432 10430 10427 10424 10421 10419